world map with ORER marked

ORER - Airport

This information may not be accurate or current and is not valid for navigation or flight planning. No warranty of fitness for any purpose is made or implied.

flag of Iraq

Donate via PayPal

Additional information is available on the NEW Great Circle Mapper

Location
City:  Erbil, Iraq
Name:Erbil International (Irbil Northwest)
ICAO / IATA:ORER / EBL

Details
Type:Airport (Aerodrome, Airfield)
Use:Public/Civil, Military
Latitude:36°14'17"N (36.238056)
Longitude:43°56'48"E (43.946667)
Elevation:1363 ft (415 m)
Runways:1
Longest:9186 × 98 ft (2800 × 30 m)

Time
Timezone:UTC+3 (DST+4)

Weather
METAR:ORER  041400Z 35004KT CAVOK 13/02 Q1027 NOSIG
TAF:ORER  041000Z 0412/0512 VRB03KT CAVOK

Related Locations
Nearby:
Farthest:GMR: 11521 mi / 18542 km
Mangareva [Totegegie], Gambier Islands, PF

Find:

   beyond  
but within

Other Information
Maps:
Links:
Sources:

  


 


Great Circle Mapper   Great Circle Mapper
Great Circle Mapper FAQ   Great Circle Mapper FAQ
  Karl's Home Page
KLSē   KLSē Home
   GC on Facebook
Airlines of the World   Airlines of the World
Donate via PayPal


Copyright © 2004-2019, Karl L. Swartz. All rights reserved.
All trademarks mentioned herein belong to their respective owners.

Please see credits for attribution and copyright information.

Karl Swartz <karl@kls2.com>
  Powered by FreeBSD
Valid HTML 4.01!
Labeled with ICRA
hCard Microformat
Geo Microformat